User: anonymous   Login
Location: Unspecified
(0.0000°N, 0.0000°E)
Time: 19:29:07
(UTC+01:00)
Language:

THEMIS D - Orbit

View from above orbital plane
View from above orbital plane
View from above satellite
View from above satellite

Ground track
Ground track

The orbit data is extracted from the following two-line orbital elements,

1 30797U 07004D   19084.19783351 -.00000578  00000-0  00000+0 0  9996
2 30797   6.7487  63.6545 8535536 332.4872   0.6639  0.75227441 42779
Epoch (UTC): 25 March 2019 04:44:52
Eccentricity: 0.8535536
inclination: 6.7487°
perigee height: 1100 km
apogee height: 88278 km
right ascension of ascending node: 63.6545°
argument of perigee: 332.4872°
revolutions per day: 0.75227441
mean anomaly at epoch: 0.6639°
orbit number at epoch: 4277

The dashed part of the orbit path shows where the satellite is in the earth's shadow,  

DLR